, TX

(GMT )
Fort Hood

Weather History for KGRK - December, 2013

Change the Weather History Date:

Tuesday, December 24, 2013

  Actual Average Record
Temperature  
Mean Temperature 44 °F -  
Max Temperature 57 °F 57 °F 73 °F (2015)
Min Temperature 32 °F 36 °F 23 °F (2004)
Degree Days  
Heating Degree Days 20    
Moisture  
Dew Point 27 °F    
Average Humidity 61    
Maximum Humidity 87    
Minimum Humidity 31    
Precipitation  
Precipitation 0.00 in - - ()
Sea Level Pressure  
Sea Level Pressure 30.43 in    
Wind  
Wind Speed 5 mph (SSE)    
Max Wind Speed 18 mph    
Max Gust Speed 20 mph    
Visibility 7 miles    
Events      
Averages and records for this station are not official NWS values.
T = Trace of Precipitation, MM = Missing Value Source: NWS Daily Summary

Daily Weather History Graph

Daily Weather History Graph

Search for Another Location

Airport or City:

Trip Planner

Search our weather history database for the weather conditions in past years. The results will help you decide how hot, cold, wet, or windy it might be!

Date:

Astronomy

Dec. 24, 2013 Rise Set
Actual Time 7:27 AM CST 5:35 PM CST
Civil Twilight 7:00 AM CST 6:01 PM CST
Nautical Twilight 6:30 AM CST 6:32 PM CST
Astronomical Twilight 6:00 AM CST 7:01 PM CST
Moon No Moon Rise 11:46 AM CST (12/24)
Length of Visible Light 11h 01m
Length of Day
10h 08m
Waning Gibbous, 58% of the Moon is Illuminated
Dec 24
Waning Gibbous
Dec 25
Last Quarter
Jan 1
New
Jan 7
First Quarter
Jan 15
Full

Hourly Weather History & Observations

Time (CST) Temp. Windchill Dew Point Humidity Pressure Visibility Wind Dir Wind Speed Gust Speed Precip Events Conditions
12:55 AM 33.8 °F - 28.4 °F 81% 30.54 in 7.0 mi Calm Calm - N/A   Clear
1:55 AM 33.8 °F - 26.6 °F 75% 30.53 in 7.0 mi Calm Calm - N/A   Clear
2:55 AM 32.0 °F - 28.4 °F 87% 30.53 in 7.0 mi Calm Calm - N/A   Clear
3:55 AM 32.0 °F - 26.6 °F 80% 30.53 in 7.0 mi Calm Calm - N/A   Clear
4:55 AM 32.0 °F 28.7 °F 26.6 °F 80% 30.52 in 7.0 mi South 3.5 mph - N/A   Clear
5:55 AM 32.0 °F 28.7 °F 26.6 °F 80% 30.51 in 7.0 mi South 3.5 mph - N/A   Clear
6:55 AM 32.0 °F - 26.6 °F 80% 30.53 in 7.0 mi Calm Calm - N/A   Clear
7:55 AM 32.0 °F - 26.6 °F 80% 30.53 in 7.0 mi Calm Calm - N/A   Clear
8:55 AM 35.6 °F 29.9 °F 30.2 °F 81% 30.53 in 7.0 mi SSE 6.9 mph - N/A   Clear
9:55 AM 41.0 °F 34.3 °F 32.0 °F 70% 30.53 in 7.0 mi SSE 11.5 mph - N/A   Clear
10:55 AM 46.4 °F 41.5 °F 30.2 °F 53% 30.51 in 7.0 mi SE 10.4 mph - N/A   Clear
11:55 AM 50.0 °F - 30.2 °F 47% 30.48 in 7.0 mi SSE 8.1 mph - N/A   Clear
12:55 PM 53.6 °F - 28.4 °F 38% 30.43 in 7.0 mi SSE 13.8 mph 19.6 mph N/A   Clear
1:55 PM 55.4 °F - 24.8 °F 31% 30.38 in 7.0 mi SSE 16.1 mph - N/A   Clear
2:55 PM 57.2 °F - 26.6 °F 31% 30.36 in 7.0 mi SSE 15.0 mph - N/A   Partly Cloudy
3:55 PM 55.4 °F - 26.6 °F 33% 30.34 in 7.0 mi SSE 18.4 mph - N/A   Partly Cloudy
4:55 PM 53.6 °F - 24.8 °F 33% 30.33 in 7.0 mi SSE 13.8 mph - N/A   Partly Cloudy
5:55 PM 46.4 °F 41.5 °F 26.6 °F 46% 30.33 in 7.0 mi SSE 10.4 mph - N/A   Partly Cloudy
6:55 PM 44.6 °F 38.4 °F 28.4 °F 53% 30.32 in 7.0 mi SSE 12.7 mph - N/A   Clear
7:55 PM 42.8 °F 37.5 °F 24.8 °F 49% 30.31 in 7.0 mi South 9.2 mph - N/A   Clear
8:55 PM 39.2 °F 32.5 °F 26.6 °F 61% 30.30 in 7.0 mi South 10.4 mph - N/A   Clear
9:55 PM 37.4 °F 30.8 °F 26.6 °F 65% 30.29 in 7.0 mi SSE 9.2 mph - N/A   Clear
10:55 PM 37.4 °F 29.8 °F 26.6 °F 65% 30.29 in 7.0 mi South 11.5 mph - N/A   Clear
11:55 PM 37.4 °F 32.8 °F 28.4 °F 70% 30.27 in 7.0 mi South 5.8 mph - N/A   Clear